Location: Unspecified
(64.9000°N, 0.0000°E)
Time: 11:06:50
(UTC+00:00)

Transit 2A Rocket - Pass Details

Date: 18 June 2019
Orbit: 590 x 913 km, 66.7° (Epoch: 16 August)

Event Time Altitude Azimuth Distance (km) Brightness Sun altitude
Rises 10:00:10 0° 158° (SSE) 3,539 9.2 44.1°
Reaches altitude 10° 10:04:05 10° 133° (SE) 2,582 8.8 44.4°
Maximum altitude 10:06:50 14° 106° (ESE) 2,314 8.3 44.6°
Drops below altitude 10° 10:09:33 10° 78° (ENE) 2,531 8.1 44.7°
Sets 10:13:18 0° 54° (NE) 3,415 8.4 45.0°
